Time,TemperatureF,DewpointF,PressureIn,WindDirection,WindDirectionDegrees,WindSpeedMPH,WindSpeedGustMPH,Humidity,HourlyPrecipIn,Conditions,Clouds,dailyrainin,SoftwareType,DateUTC
2013-01-13 15:40:00,76.7,63.6,30.09,South,173,0.0,0.0,64,0.00,,,0.00,Wunderground v.1.15,2013-01-13 20:40:00,
2013-01-13 15:45:00,76.5,63.0,30.09,SSE,163,0.0,0.0,63,0.00,,,0.00,Wunderground v.1.15,2013-01-13 20:45:00,
2013-01-13 15:55:00,76.6,63.1,30.10,SSE,163,0.0,0.0,63,0.00,,,0.00,Wunderground v.1.15,2013-01-13 20:55:00,
2013-01-13 16:05:00,76.6,63.5,30.10,SSE,153,0.0,0.0,64,0.00,,,0.00,Wunderground v.1.15,2013-01-13 21:05:00,
2013-01-13 16:10:00,76.6,63.5,30.10,SSE,153,0.0,0.0,64,0.00,,,0.00,Wunderground v.1.15,2013-01-13 21:10:00,
2013-01-13 16:15:00,76.5,63.9,30.10,SSE,153,0.0,0.0,65,0.00,,,0.00,Wunderground v.1.15,2013-01-13 21:15:00,
2013-01-13 16:20:00,76.5,63.9,30.10,SSE,153,0.0,0.0,65,0.00,,,0.00,Wunderground v.1.15,2013-01-13 21:20:00,
2013-01-13 16:25:00,76.3,64.5,30.10,SSE,153,0.0,0.0,67,0.00,,,0.00,Wunderground v.1.15,2013-01-13 21:25:00,
2013-01-13 16:30:00,76.2,64.0,30.10,SSE,153,0.0,0.0,66,0.00,,,0.00,Wunderground v.1.15,2013-01-13 21:30:00,
2013-01-13 16:35:00,76.0,64.2,30.10,SSE,153,0.0,0.0,67,0.00,,,0.00,Wunderground v.1.15,2013-01-13 21:35:00,
2013-01-13 16:40:00,75.9,64.2,30.10,SSE,153,0.0,0.0,67,0.00,,,0.00,Wunderground v.1.15,2013-01-13 21:40:00,
2013-01-13 16:45:00,75.7,64.4,30.10,SSE,153,0.0,0.0,68,0.00,,,0.00,Wunderground v.1.15,2013-01-13 21:45:00,
2013-01-13 16:50:00,75.5,64.2,30.10,SSE,153,0.0,0.0,68,0.00,,,0.00,Wunderground v.1.15,2013-01-13 21:50:00,
2013-01-13 16:55:00,75.3,64.4,30.10,SSE,153,0.0,0.0,69,0.00,,,0.00,Wunderground v.1.15,2013-01-13 21:55:00,
2013-01-13 17:00:00,75.0,64.1,30.10,SSE,153,0.0,0.0,69,0.00,,,0.00,Wunderground v.1.15,2013-01-13 22:00:00,
2013-01-13 17:10:00,74.2,64.2,30.10,SSE,153,0.0,0.0,71,0.00,,,0.00,Wunderground v.1.15,2013-01-13 22:10:00,
2013-01-13 17:15:00,73.7,64.1,30.10,SSE,153,0.0,0.0,72,0.00,,,0.00,Wunderground v.1.15,2013-01-13 22:15:00,
2013-01-13 17:20:00,73.1,63.9,30.10,SSE,153,0.0,0.0,73,0.00,,,0.00,Wunderground v.1.15,2013-01-13 22:20:00,
2013-01-13 17:25:00,72.5,63.7,30.09,SSE,153,0.0,0.0,74,0.00,,,0.00,Wunderground v.1.15,2013-01-13 22:25:00,
2013-01-13 17:30:00,71.9,63.9,30.09,SSE,153,0.0,0.0,76,0.00,,,0.00,Wunderground v.1.15,2013-01-13 22:30:00,
2013-01-13 17:35:00,71.2,63.6,30.09,SSE,153,0.0,0.0,77,0.00,,,0.00,Wunderground v.1.15,2013-01-13 22:35:00,
2013-01-13 17:40:00,70.7,63.5,30.09,SSE,153,0.0,0.0,78,0.00,,,0.00,Wunderground v.1.15,2013-01-13 22:40:00,
2013-01-13 17:45:00,70.2,63.4,30.10,SSE,153,0.0,0.0,79,0.00,,,0.00,Wunderground v.1.15,2013-01-13 22:45:00,
2013-01-13 17:55:00,69.5,63.4,30.10,SSE,153,0.0,0.0,81,0.00,,,0.00,Wunderground v.1.15,2013-01-13 22:55:00,
2013-01-13 18:00:00,69.2,63.5,30.09,SSE,153,0.0,0.0,82,0.00,,,0.00,Wunderground v.1.15,2013-01-13 23:00:00,
2013-01-13 18:05:00,68.9,63.5,30.09,SSE,153,0.0,0.0,83,0.00,,,0.00,Wunderground v.1.15,2013-01-13 23:05:00,
2013-01-13 18:10:00,68.7,63.3,30.09,SSE,153,0.0,0.0,83,0.00,,,0.00,Wunderground v.1.15,2013-01-13 23:10:00,
2013-01-13 18:15:00,68.5,63.5,30.09,SSE,153,0.0,0.0,84,0.00,,,0.00,Wunderground v.1.15,2013-01-13 23:15:00,
2013-01-13 18:20:00,68.3,63.3,30.09,SSE,153,0.0,0.0,84,0.00,,,0.00,Wunderground v.1.15,2013-01-13 23:20:00,
2013-01-13 18:30:00,67.8,63.1,30.09,SSE,153,0.0,0.0,85,0.00,,,0.00,Wunderground v.1.15,2013-01-13 23:30:00,
2013-01-13 18:35:00,67.5,63.2,30.09,SSE,153,0.0,0.0,86,0.00,,,0.00,Wunderground v.1.15,2013-01-13 23:35:00,
2013-01-13 18:40:00,67.3,63.0,30.09,SSE,153,0.0,0.0,86,0.00,,,0.00,Wunderground v.1.15,2013-01-13 23:40:00,
2013-01-13 18:45:00,67.1,63.1,30.09,SSE,153,0.0,0.0,87,0.00,,,0.00,Wunderground v.1.15,2013-01-13 23:45:00,
2013-01-13 18:50:00,67.0,63.0,30.09,SSE,153,0.0,0.0,87,0.00,,,0.00,Wunderground v.1.15,2013-01-13 23:50:00,
2013-01-13 18:55:00,66.8,63.1,30.09,SSE,153,0.0,0.0,88,0.00,,,0.00,Wunderground v.1.15,2013-01-13 23:55:00,
2013-01-13 19:05:00,66.6,62.9,30.09,SSE,153,0.0,0.0,88,0.00,,,0.00,Wunderground v.1.15,2013-01-14 00:05:00,
2013-01-13 19:10:00,66.5,62.8,30.09,SSE,153,0.0,0.0,88,0.00,,,0.00,Wunderground v.1.15,2013-01-14 00:10:00,
2013-01-13 19:15:00,66.4,63.1,30.09,SSE,153,0.0,0.0,89,0.00,,,0.00,Wunderground v.1.15,2013-01-14 00:15:00,
2013-01-13 19:20:00,66.3,63.0,30.09,SSE,153,0.0,0.0,89,0.00,,,0.00,Wunderground v.1.15,2013-01-14 00:20:00,
2013-01-13 19:25:00,66.2,62.9,30.09,SSE,153,0.0,0.0,89,0.00,,,0.00,Wunderground v.1.15,2013-01-14 00:25:00,
2013-01-13 19:30:00,66.1,62.8,30.09,SSE,153,0.0,0.0,89,0.00,,,0.00,Wunderground v.1.15,2013-01-14 00:30:00,
2013-01-13 19:35:00,66.0,63.0,30.09,SSE,153,0.0,0.0,90,0.00,,,0.00,Wunderground v.1.15,2013-01-14 00:35:00,
2013-01-13 19:45:00,65.8,62.8,30.09,SSE,153,0.0,0.0,90,0.00,,,0.00,Wunderground v.1.15,2013-01-14 00:45:00,
2013-01-13 19:50:00,65.7,62.7,30.10,SSE,153,0.0,0.0,90,0.00,,,0.00,Wunderground v.1.15,2013-01-14 00:50:00,
2013-01-13 19:55:00,65.5,62.5,30.10,SSE,153,0.0,0.0,90,0.00,,,0.00,Wunderground v.1.15,2013-01-14 00:55:00,
2013-01-13 20:00:00,65.5,62.5,30.10,SSE,153,0.0,0.0,90,0.00,,,0.00,Wunderground v.1.15,2013-01-14 01:00:00,
2013-01-13 20:05:00,65.4,62.4,30.10,SSE,153,0.0,0.0,90,0.00,,,0.00,Wunderground v.1.15,2013-01-14 01:05:00,
2013-01-13 20:10:00,65.4,62.4,30.10,SSE,153,0.0,0.0,90,0.00,,,0.00,Wunderground v.1.15,2013-01-14 01:10:00,
2013-01-13 20:20:00,65.2,62.2,30.10,SSE,153,0.0,0.0,90,0.00,,,0.00,Wunderground v.1.15,2013-01-14 01:20:00,
2013-01-13 20:25:00,65.2,62.5,30.10,SSE,153,0.0,0.0,91,0.00,,,0.00,Wunderground v.1.15,2013-01-14 01:25:00,
2013-01-13 20:30:00,65.2,62.5,30.10,SSE,153,0.0,0.0,91,0.00,,,0.00,Wunderground v.1.15,2013-01-14 01:30:00,
2013-01-13 20:35:00,65.1,62.4,30.10,SSE,153,0.0,0.0,91,0.00,,,0.00,Wunderground v.1.15,2013-01-14 01:35:00,
2013-01-13 20:40:00,65.0,62.3,30.11,SSE,153,0.0,0.0,91,0.00,,,0.00,Wunderground v.1.15,2013-01-14 01:40:00,
2013-01-13 20:45:00,64.9,62.2,30.10,SSE,153,0.0,0.0,91,0.00,,,0.00,Wunderground v.1.15,2013-01-14 01:45:00,
2013-01-13 20:55:00,64.8,62.1,30.10,SSE,153,0.0,0.0,91,0.00,,,0.00,Wunderground v.1.15,2013-01-14 01:55:00,
2013-01-13 21:00:00,64.7,62.0,30.10,SSE,153,0.0,0.0,91,0.00,,,0.00,Wunderground v.1.15,2013-01-14 02:00:00,
2013-01-13 21:10:00,64.5,61.8,30.10,SSE,153,0.0,0.0,91,0.00,,,0.00,Wunderground v.1.15,2013-01-14 02:10:00,
2013-01-13 21:15:00,64.5,61.8,30.10,SSE,153,0.0,0.0,91,0.00,,,0.00,Wunderground v.1.15,2013-01-14 02:15:00,
2013-01-13 21:20:00,64.3,61.6,30.10,SSE,153,0.0,0.0,91,0.00,,,0.00,Wunderground v.1.15,2013-01-14 02:20:00,
2013-01-13 21:25:00,64.2,61.5,30.11,SSE,153,0.0,0.0,91,0.00,,,0.00,Wunderground v.1.15,2013-01-14 02:25:00,
2013-01-13 21:30:00,64.1,61.4,30.11,SSE,153,0.0,0.0,91,0.00,,,0.00,Wunderground v.1.15,2013-01-14 02:30:00,
2013-01-13 21:40:00,63.8,61.1,30.12,SSE,153,0.0,0.0,91,0.00,,,0.00,Wunderground v.1.15,2013-01-14 02:40:00,
2013-01-13 21:45:00,63.6,60.9,30.12,SSE,153,0.0,0.0,91,0.00,,,0.00,Wunderground v.1.15,2013-01-14 02:45:00,
2013-01-13 21:50:00,63.5,60.8,30.12,SSE,153,0.0,0.0,91,0.00,,,0.00,Wunderground v.1.15,2013-01-14 02:50:00,
2013-01-13 22:00:00,63.5,61.1,30.11,SSE,153,0.0,0.0,92,0.00,,,0.00,Wunderground v.1.15,2013-01-14 03:00:00,
2013-01-13 22:05:00,63.6,61.2,30.11,SSE,153,0.0,0.0,92,0.00,,,0.00,Wunderground v.1.15,2013-01-14 03:05:00,
2013-01-13 22:10:00,63.6,61.2,30.12,SSE,153,0.0,0.0,92,0.00,,,0.00,Wunderground v.1.15,2013-01-14 03:10:00,
2013-01-13 22:15:00,63.5,61.1,30.13,SSE,153,0.0,0.0,92,0.00,,,0.00,Wunderground v.1.15,2013-01-14 03:15:00,
2013-01-13 22:20:00,63.5,61.1,30.13,SSE,153,0.0,0.0,92,0.00,,,0.00,Wunderground v.1.15,2013-01-14 03:20:00,
2013-01-13 22:25:00,63.4,61.0,30.13,SSE,153,0.0,0.0,92,0.00,,,0.00,Wunderground v.1.15,2013-01-14 03:25:00,
2013-01-13 22:35:00,63.2,60.8,30.13,SSE,153,0.0,0.0,92,0.00,,,0.00,Wunderground v.1.15,2013-01-14 03:35:00,
2013-01-13 22:40:00,63.1,60.7,30.13,SSE,153,0.0,0.0,92,0.00,,,0.00,Wunderground v.1.15,2013-01-14 03:40:00,
2013-01-13 22:50:00,62.8,60.4,30.13,SSE,153,0.0,0.0,92,0.00,,,0.00,Wunderground v.1.15,2013-01-14 03:50:00,
2013-01-13 22:55:00,62.8,60.4,30.13,SSE,153,0.0,0.0,92,0.00,,,0.00,Wunderground v.1.15,2013-01-14 03:55:00,
2013-01-13 23:00:00,62.9,60.8,30.13,SSE,153,0.0,0.0,93,0.00,,,0.00,Wunderground v.1.15,2013-01-14 04:00:00,
2013-01-13 23:05:00,62.8,60.4,30.13,SSE,153,0.0,0.0,92,0.00,,,0.00,Wunderground v.1.15,2013-01-14 04:05:00,
2013-01-13 23:15:00,62.8,60.7,30.13,SSE,153,0.0,0.0,93,0.00,,,0.00,Wunderground v.1.15,2013-01-14 04:15:00,
2013-01-13 23:20:00,62.9,60.8,30.13,SSE,153,0.0,0.0,93,0.00,,,0.00,Wunderground v.1.15,2013-01-14 04:20:00,
2013-01-13 23:25:00,62.9,60.8,30.13,SSE,153,0.0,0.0,93,0.00,,,0.00,Wunderground v.1.15,2013-01-14 04:25:00,
2013-01-13 23:30:00,62.9,60.8,30.13,SSE,153,0.0,0.0,93,0.00,,,0.00,Wunderground v.1.15,2013-01-14 04:30:00,
2013-01-13 23:35:00,63.0,60.9,30.13,SSE,153,0.0,0.0,93,0.00,,,0.00,Wunderground v.1.15,2013-01-14 04:35:00,
2013-01-13 23:40:00,63.0,60.9,30.13,SSE,153,0.0,0.0,93,0.00,,,0.00,Wunderground v.1.15,2013-01-14 04:40:00,
2013-01-13 23:50:00,63.0,60.9,30.14,SSE,153,0.0,0.0,93,0.00,,,0.00,Wunderground v.1.15,2013-01-14 04:50:00,
2013-01-13 23:55:00,62.9,60.8,30.14,SSE,153,0.0,0.0,93,0.00,,,0.00,Wunderground v.1.15,2013-01-14 04:55:00,